Home > Weather > Philadelphia > Past weeks

Flag for USA Weather for the Past 2 Weeks in Philadelphia, Pennsylvania, USA

Now
50 °F

Mostly cloudy.


Feels Like: 46 °F
Forecast: 47 / 56 °F
Wind: 12 mph from Northeast

Location: Philadelphia International Airport

Current Time: May 5, 2016 at 8:29:15 AM

Latest Report: May 5, 2016 at 7:54 AM


Visibility: 10 mi

Pressure: 29.69 "Hg

Humidity: 77%

Dew Point: 43 °F

Location of PhiladelphiaLocation

Historic Weather in Philadelphia — Graph

°F

Philadelphia Temperature Yesterday

Maximum temperature yesterday: 54 °F (at 11:54 AM)
Minimum temperature yesterday: 51 °F (at 4:54 AM)
Average temperature yesterday: 52 °F

High & Low Weather Summary for the Past Weeks

 TemperatureHumidityPressure
High85 °F (Apr 26, 2:54 PM)90% (Apr 23, 3:54 AM)30.29 "Hg (Apr 23, 3:54 AM)
Low45 °F (Apr 28, 7:54 PM)13% (Apr 20, 1:54 PM)29.60 "Hg (Apr 26, 2:54 PM)
Average57 °F65%29.97 "Hg
* Reported Apr 20 6:54 AM — May 5 6:54 AM, Philadelphia, Weather by CustomWeather, © 2016

Note: Actual official high and low records may vary slightly from our data, if they occured in-between our weather recording intervals... More about our weather records

Advertising

Philadelphia Weather History for the Previous 24 Hours

Scroll right to see more
 ConditionsComfort  
Time TempWeatherWind HumidityBarometerVisibility
6:54 AM
Thu, May 5
50 °FMostly cloudy.12 mph77%29.68 "Hg10 mi
5:54 AM50 °FOvercast.14 mph77%29.67 "Hg10 mi
4:54 AM50 °FMostly cloudy.7 mph80%29.68 "Hg10 mi
3:54 AM50 °FMostly cloudy.8 mph77%29.70 "Hg10 mi
2:54 AM50 °FOvercast.9 mph80%29.70 "Hg10 mi
1:59 AM50 °FMostly cloudy.9 mph86%29.73 "Hg8 mi
12:54 AM51 °FOvercast.8 mph83%29.72 "Hg7 mi
11:54 PM
Wed, May 4
51 °FMostly cloudy.9 mph83%29.73 "Hg9 mi
11:02 PM51 °FFog.6 mph86%29.73 "Hg6 mi
10:54 PM51 °FOvercast.8 mph83%29.73 "Hg10 mi
9:54 PM51 °FOvercast.9 mph80%29.74 "Hg10 mi
9:02 PM51 °FMostly cloudy.7 mph83%29.75 "Hg8 mi
8:54 PM51 °FDrizzle. Low clouds.9 mph83%29.75 "Hg5 mi
7:54 PM52 °FOvercast.10 mph80%29.73 "Hg10 mi
6:54 PM52 °FOvercast.10 mph77%29.70 "Hg10 mi
5:54 PM53 °FOvercast.12 mph74%29.71 "Hg10 mi
4:54 PM53 °FOvercast.9 mph74%29.70 "Hg10 mi
3:54 PM53 °FOvercast.10 mph77%29.70 "Hg10 mi
2:54 PM53 °FOvercast.9 mph77%29.71 "Hg10 mi
1:54 PM53 °FOvercast.10 mph80%29.71 "Hg10 mi
12:54 PM53 °FOvercast.13 mph80%29.74 "Hg10 mi
11:54 AM54 °FOvercast.12 mph77%29.74 "Hg10 mi
10:54 AM53 °FOvercast.9 mph80%29.75 "Hg10 mi
9:54 AM53 °FLow clouds.14 mph80%29.76 "Hg10 mi
8:54 AM52 °FLow clouds.10 mph83%29.76 "Hg10 mi
Weather by CustomWeather, © 2016

See weather overviewHow to use our weather pages